Location: Montbazon
(47.2835°N, 0.6999°E)
Time: 17:12:10
(UTC+00:00)

Cosmos 1864 Rocket - Pass Details

Date: 08 November 2025
Orbit: 951 x 995 km, 82.9° (Epoch: 10 December)

Event Time Altitude Azimuth Distance (km) Brightness Sun altitude
Rises 04:45:46 0° 350° (N) 3,681 7.4 -21.4°
Reaches altitude 10° 04:48:16 10° 351° (N) 2,736 6.7 -21.0°
Maximum altitude 04:54:34 90° 270° (W) 991 4.5 -19.9°
Drops below altitude 10° 05:00:54 10° 174° (S) 2,744 7.0 -18.9°
Sets 05:03:24 0° 174° (S) 3,693 7.7 -18.4°
